Regional Weather Roundup
Issued by NWS State College, PA

Home | Current Version | Previous Version | Graphics & Text | Print | Product List | Glossary Off
Versions: 1 2 3 4 5 6 7 8 9 10 11 12 13 14 15 16 17 18 19 20 21 22 23 24 25 26 27 28 29 30 31 32 33 34 35 36 37 38 39 40 41 42 43 44 45 46 47 48 49 50

000
ASUS41 KCTP 031203
RWRCTP

REGIONAL WEATHER ROUNDUP
NATIONAL WEATHER SERVICE STATE COLLEGE PA
800 AM EDT SUN MAY 03 2015

Note: "fair" indicates few or no clouds below 12,000 feet with no
significant weather and/or obstructions to visibility.

* = STATION THAT DOES NOT REPORT PRECIPITATION /E.G. RAIN...SNOW...ETC/
    THUNDER OR FOG.

PAZ002>004-007>009-013>016-020>023-029>032-031300-
WESTERN PENNSYLVANIA

CITY           SKY/WX    TMP DP  RH WIND       PRES   REMARKS
ERIE           MOSUNNY   56  39  53 S6        30.08R
MEADVILLE      SUNNY     56  36  47 S6        30.10R
FRANKLIN*      SUNNY     54  37  54 S6        30.12R
NEW CASTLE     FAIR      48  45  90 CALM      30.12R
BEAVER COUNTY  NOT AVBL
BUTLER*        MOSUNNY   54  45  71 CALM      30.14R
PITTSBURGH INT MOSUNNY   52  43  71 CALM      30.12R
PITTSBURGH     SUNNY     54  39  57 S8        30.12R
INDIANA*       SUNNY     54  41  62 CALM      30.16R
LATROBE        MOSUNNY   50  45  81 SW9       30.15R
WASHINGTON CO* SUNNY     52  46  82 CALM      30.15R
$$

PAZ004>006-010>012-017>019-024>028-033>037-041-042-045-046-049>053-031300-
CENTRAL PENNSYLVANIA

CITY           SKY/WX    TMP DP  RH WIND       PRES   REMARKS
BRADFORD       SUNNY     53  35  50 VRB5      30.12R
DUBOIS         MOSUNNY   52  36  54 E3        30.11R
CLEARFIELD     SUNNY     46  36  68 CALM      30.13R
JOHNSTOWN      SUNNY     53  37  54 SW9       30.14R
ALTOONA        SUNNY     53  39  59 CALM      30.13R
STATE COLLEGE  SUNNY     52  36  54 CALM      30.13R
WILLIAMSPORT   SUNNY     49  39  68 CALM      30.11R
SELINSGROVE    SUNNY     50  45  83 CALM      30.11R
FT INDIANTOWN  SUNNY     53  42  66 CALM      30.09R
CAPITAL CITY   SUNNY     56  43  61 CALM      30.10R
HARRISBURG     MOSUNNY   55  47  74 NW7       30.10R
YORK           SUNNY     54  43  66 W3        30.10R
$$

PAZ038>040-043-044-047-048-054-055-060>062-067>071-031300-
EASTERN PENNSYLVANIA

CITY           SKY/WX    TMP DP  RH WIND       PRES   REMARKS
SCRANTON       SUNNY     51  34  52 E3        30.10R
MOUNT POCONO   MOSUNNY   54  40  59 NW5       30.10R
ALLENTOWN      SUNNY     52  45  77 CALM      30.09R
QUAKERTOWN*    SUNNY     50  45  81 CALM      30.10R
READING        SUNNY     53  47  79 CALM      30.09R
LANCASTER      SUNNY     51  47  86 SE3       30.09R
COATESVILLE    MOSUNNY   54  48  82 NW3       30.10R
POTTSTOWN      SUNNY     52  47  83 NW3       30.11R
BLUE BELL      MOSUNNY   54  45  71 CALM      30.09R
DOYLESTOWN     SUNNY     50  32  50 CALM      30.08R
WILLOW GROVE   NOT AVBL
NORTH PHILA    MOSUNNY   54  40  59 CALM      30.10S
PHILADELPHIA   PTSUNNY   54  43  66 CALM      30.10R
$$


USA.gov is the U.S. government's official web portal to all federal, state and local government web resources and services.